Terug naar catalogus

STARLINK-31685

ActiefCommunicatieVLEO
NORAD 59578·PAYLOAD·🇺🇸 United States

Gelanceerd Apr 23, 2024 vanaf Cape Canaveral Space Force Station

Loading…

Volgende Passages (komende 24 uur)

TLE

VersSource: CelesTrak SupGP

Epoch: Sep 15, 2026, 03:30 UTC

1 59578C 24076Q   26258.14631944  .00017653  00000+0  63952-3 0  2585
2 59578  43.0017  18.6841 0001480 272.6549  19.8050 15.27563107    18

Volg STARLINK-31685 in realtime met AllMySat

Download on the App Store